Location: Miami, Florida
(25.6830°N, 80.1700°W)
Time: 16:17:31
(UTC-04:00)

ISS - Visible Passes

Search period start: 16 October 2018 00:00
Search period end: 26 October 2018 00:00
Orbit: 403 x 408 km, 51.6° (Epoch: 17 October)

Date Brightness Start Highest point End Pass type
(mag) Time Alt. Az. Time Alt. Az. Time Alt. Az.
16 Oct -2.7 19:12:55 10° NW 19:16:06 47° SW 19:19:16 10° SSE visible
23 Oct -1.2 06:35:50 10° S 06:38:27 23° SE 06:41:05 10° ENE visible
25 Oct -3.8 06:27:28 10° SW 06:30:43 84° SE 06:33:59 10° NE visible
